Regional Weather Roundup
Issued by NWS Sioux Falls, SD

Home | Current Version | Previous Version | Text Only | Print | Product List | Glossary On
Versions: 1 2 3 4 5 6 7 8 9 10 11 12 13 14 15 16 17 18 19 20 21 22 23 24 25 26 27 28 29 30 31 32 33 34 35 36 37 38 39 40 41 42 43 44 45 46 47 48 49 50
000
ASUS43 KFSD 292210
RWRFSD

WEATHER ROUNDUP FOR SE SOUTH DAKOTA/SW MINNESOTA/NW IOWA
NATIONAL WEATHER SERVICE SIOUX FALLS SD
500 PM CDT FRI MAY 29 2015

NOTE: "FAIR" INDICATES FEW OR NO CLOUDS BELOW 12,000 FEET WITH NO
SIGNIFICANT WEATHER AND OR OBSTRUCTIONS TO VISIBILITY.


SDZ038>040-050-052>070-292300-
SOUTHEAST SOUTH DAKOTA

CITY           SKY/WX    TMP DP  RH WIND       PRES   REMARKS
BROOKINGS      CLOUDY    48  45  87 N17G24    30.06S
CHAMBERLAIN    CLOUDY    51  46  82 N14G22    30.17R
HURON          CLOUDY    52  44  74 N22G33    30.13R
MADISON        CLOUDY    48  48 100 N22G30    30.05S
MITCHELL       LGT RAIN  53  48  83 N24G37    30.10R
SIOUX FALLS    CLOUDY    53  49  86 N18G29    30.01R
WINNER         CLOUDY    51  46  83 N18       30.19R
YANKTON        CLOUDY    57  52  82 N20G26    30.01R
$$

MNZ071-072-080-081-089-090-097-098-292300-
SOUTHWEST MINNESOTA

CITY           SKY/WX    TMP DP  RH WIND       PRES   REMARKS
FAIRMONT       CLOUDY    64  59  82 N20       29.90R
JACKSON        LGT RAIN  59  55  88 N16G24    29.94S
LUVERNE        CLOUDY    54  50  87 N16G25    29.99S
MARSHALL       CLOUDY    48  43  81 N25G33    30.01S
MONTEVIDEO     DRIZZLE   52  52 100 N16G24    30.04R
PIPESTONE      CLOUDY    50  46  87 N16G30    30.01S
REDWOOD FALLS  LGT RAIN  57  55  93 N20G28    29.96R
TRACY          LGT RAIN  51  50  97 N20G31    30.00S
WINDOM         CLOUDY    55  54  94 NW25G35   29.94S
WORTHINGTON    CLOUDY    54  48  82 N28       29.97R
$$

IAZ001>003-012>014-020>022-031-032-NEZ013-014-SDZ071-292300-
NORTHWEST IOWA

CITY           SKY/WX    TMP DP  RH WIND       PRES   REMARKS
CHEROKEE       CLOUDY    66  61  84 N12G25    29.91R
DENISON        CLOUDY    75  66  73 SW13      29.87F
ESTHERVILLE    CLOUDY    62  59  90 N22       29.91R
LE MARS        CLOUDY    63  59  88 N17G25    29.95R
ORANGE CITY    CLOUDY    57  55  94 N12G21    29.95R
SHELDON        CLOUDY    59  57  94 N22G29    29.94R
SIOUX CITY     LGT RAIN  68  61  78 N20G26    29.89R
SPENCER        CLOUDY    63  57  81 N22G28    29.93R
STORM LAKE     CLOUDY    66  61  82 N18       29.90S
$$

ABBREVIATIONS USED IN REMARKS
   TC - TEMPERATURE IN CELSIUS
  WCI - WIND CHILL INDEX
   HX - HEAT INDEX
  VSB - VISIBILITY



USA.gov is the U.S. government's official web portal to all federal, state and local government web resources and services.